AAL404 SVMI-TTPP

Flight info

Callsign AAL404
Flight time 0h 52m
Altitude 31000
Route SOSKA2 CBC UP671 MEGIR DCT SHARK
Aircraft MD82/M-SDFGIRWY/S

Departure

Time 2026-05-04 15:05
Airport Maiquetía Simón Bolívar International Airport (SVMI)

Arrival

Time 2026-05-04 15:58
Airport Piarco International Airport (TTPP)
Time Latitude Longitude Altitude Speed Heading
2026-05-04 14:52 10.59816 -67.00969 237 ft 0 kts 178°
2026-05-04 14:57 10.59834 -67.00969 237 ft 4 kts 178°
2026-05-04 14:58 10.59861 -67.00970 237 ft 4 kts 185°
2026-05-04 14:58 10.59886 -67.00964 237 ft 4 kts 210°
2026-05-04 14:58 10.59902 -67.00947 237 ft 4 kts 248°
2026-05-04 14:58 10.59906 -67.00929 236 ft 0 kts 268°
2026-05-04 15:01 10.59905 -67.00971 237 ft 5 kts 270°
2026-05-04 15:01 10.59904 -67.01006 238 ft 5 kts 266°
2026-05-04 15:01 10.59902 -67.01039 238 ft 6 kts 267°
2026-05-04 15:01 10.59901 -67.01109 240 ft 11 kts 268°
2026-05-04 15:02 10.59896 -67.01182 241 ft 10 kts 267°
2026-05-04 15:02 10.59926 -67.01235 242 ft 12 kts 341°
2026-05-04 15:02 10.60014 -67.01245 242 ft 12 kts 358°
2026-05-04 15:02 10.60100 -67.01247 242 ft 13 kts 359°
2026-05-04 15:03 10.60196 -67.01248 239 ft 15 kts 358°
2026-05-04 15:03 10.60258 -67.01251 239 ft 0 kts 355°
2026-05-04 15:04 10.60298 -67.01252 240 ft 11 kts 358°
2026-05-04 15:04 10.60366 -67.01245 242 ft 8 kts 38°
2026-05-04 15:04 10.60381 -67.01210 241 ft 0 kts 75°
2026-05-04 15:04 10.60383 -67.01205 241 ft 6 kts 76°
2026-05-04 15:05 10.60391 -67.00958 235 ft 69 kts 88°
2026-05-04 15:05 10.60413 -67.00236 227 ft 132 kts 88°
2026-05-04 15:05 10.60466 -66.99166 381 ft 165 kts 84°
2026-05-04 15:05 10.60606 -66.98140 1205 ft 148 kts 81°
2026-05-04 15:06 10.60799 -66.96966 1189 ft 183 kts 81°
2026-05-04 15:06 10.61016 -66.95606 1371 ft 206 kts 81°
2026-05-04 15:06 10.61243 -66.94087 1540 ft 230 kts 81°
2026-05-04 15:07 10.61768 -66.90631 2468 ft 256 kts 81°
2026-05-04 15:07 10.62055 -66.88834 3197 ft 258 kts 80°
2026-05-04 15:07 10.62363 -66.87032 3972 ft 260 kts 80°
2026-05-04 15:07 10.62686 -66.85207 4682 ft 264 kts 80°
2026-05-04 15:08 10.63018 -66.83358 5393 ft 267 kts 80°
2026-05-04 15:08 10.63351 -66.81490 6130 ft 270 kts 81°
2026-05-04 15:08 10.63685 -66.79600 6819 ft 273 kts 81°
2026-05-04 15:08 10.64021 -66.77684 7449 ft 277 kts 81°
2026-05-04 15:09 10.64362 -66.75740 8050 ft 281 kts 81°
2026-05-04 15:09 10.64704 -66.73778 8673 ft 283 kts 81°
2026-05-04 15:09 10.65045 -66.71826 9278 ft 284 kts 81°
2026-05-04 15:10 10.65741 -66.67806 10253 ft 294 kts 81°
2026-05-04 15:10 10.66098 -66.65735 10643 ft 302 kts 81°
2026-05-04 15:10 10.66859 -66.61305 10940 ft 335 kts 81°
2026-05-04 15:11 10.67274 -66.58904 10981 ft 353 kts 81°
2026-05-04 15:11 10.67707 -66.56408 10997 ft 360 kts 81°
2026-05-04 15:11 10.68143 -66.53900 11002 ft 360 kts 81°
2026-05-04 15:11 10.68580 -66.51391 11008 ft 361 kts 81°
2026-05-04 15:12 10.68680 -66.48854 11019 ft 361 kts 99°
2026-05-04 15:12 10.68140 -66.46337 11374 ft 366 kts 105°
2026-05-04 15:12 10.67698 -66.44677 11833 ft 365 kts 105°
2026-05-04 15:12 10.67019 -66.42192 12504 ft 364 kts 105°
2026-05-04 15:13 10.66339 -66.39735 12986 ft 367 kts 105°
2026-05-04 15:13 10.65640 -66.37217 13446 ft 370 kts 105°
2026-05-04 15:13 10.64951 -66.34687 14014 ft 372 kts 105°
2026-05-04 15:13 10.64275 -66.32140 14544 ft 374 kts 104°
2026-05-04 15:14 10.63605 -66.29562 14957 ft 379 kts 104°
2026-05-04 15:14 10.62939 -66.26959 15521 ft 381 kts 104°
2026-05-04 15:14 10.62274 -66.24345 16085 ft 383 kts 104°
2026-05-04 15:14 10.61622 -66.21778 16567 ft 387 kts 104°
2026-05-04 15:15 10.60947 -66.19115 17064 ft 390 kts 103°
2026-05-04 15:15 10.60275 -66.16471 17618 ft 392 kts 103°
2026-05-04 15:15 10.59588 -66.13773 18124 ft 395 kts 103°
2026-05-04 15:16 10.58197 -66.08323 19055 ft 402 kts 103°
2026-05-04 15:16 10.57499 -66.05550 19442 ft 407 kts 101°
2026-05-04 15:16 10.57161 -65.99777 20264 ft 413 kts 89°
2026-05-04 15:17 10.57190 -65.96825 20551 ft 420 kts 89°
2026-05-04 15:17 10.57246 -65.90849 21383 ft 426 kts 89°
2026-05-04 15:17 10.57255 -65.87830 21728 ft 430 kts 89°
2026-05-04 15:18 10.57246 -65.84817 22059 ft 434 kts 90°
2026-05-04 15:18 10.57224 -65.81737 22372 ft 438 kts 90°
2026-05-04 15:18 10.57194 -65.78627 22715 ft 441 kts 90°
2026-05-04 15:19 10.57129 -65.72338 23383 ft 448 kts 90°
2026-05-04 15:19 10.57099 -65.69154 23701 ft 452 kts 90°
2026-05-04 15:19 10.57044 -65.62714 24295 ft 459 kts 90°
2026-05-04 15:20 10.57017 -65.59461 24616 ft 462 kts 90°
2026-05-04 15:20 10.56988 -65.56188 24954 ft 464 kts 90°
2026-05-04 15:20 10.56958 -65.52937 25257 ft 466 kts 90°
2026-05-04 15:20 10.56925 -65.49616 25508 ft 470 kts 90°
2026-05-04 15:21 10.56892 -65.46282 25799 ft 473 kts 90°
2026-05-04 15:21 10.56860 -65.42926 26121 ft 475 kts 90°
2026-05-04 15:21 10.56798 -65.36163 26646 ft 481 kts 90°
2026-05-04 15:22 10.56767 -65.32804 27006 ft 481 kts 90°
2026-05-04 15:22 10.56735 -65.29404 27425 ft 480 kts 90°
2026-05-04 15:22 10.56673 -65.22605 28153 ft 481 kts 90°
2026-05-04 15:23 10.56643 -65.19211 28485 ft 481 kts 90°
2026-05-04 15:23 10.56609 -65.15815 28838 ft 480 kts 90°
2026-05-04 15:23 10.56574 -65.12477 29126 ft 481 kts 90°
2026-05-04 15:23 10.56537 -65.09068 29429 ft 483 kts 90°
2026-05-04 15:24 10.56462 -65.02255 30117 ft 482 kts 90°
2026-05-04 15:24 10.56390 -64.95477 30679 ft 483 kts 90°
2026-05-04 15:25 10.56356 -64.92066 30862 ft 482 kts 90°
2026-05-04 15:25 10.56322 -64.88666 30947 ft 480 kts 90°
2026-05-04 15:26 10.56216 -64.78483 31018 ft 480 kts 90°
2026-05-04 15:26 10.56097 -64.68302 31026 ft 481 kts 90°
2026-05-04 15:27 10.55986 -64.58087 31018 ft 482 kts 90°
2026-05-04 15:28 10.55856 -64.47897 31017 ft 480 kts 90°
2026-05-04 15:29 10.55732 -64.37713 31018 ft 481 kts 90°
2026-05-04 15:30 10.55439 -64.13935 31023 ft 482 kts 90°
2026-05-04 15:31 10.55284 -64.03709 31025 ft 482 kts 90°
2026-05-04 15:32 10.55074 -63.86776 31027 ft 481 kts 90°
2026-05-04 15:34 10.54835 -63.69751 31026 ft 482 kts 90°
2026-05-04 15:34 10.54676 -63.59540 31026 ft 481 kts 90°
2026-05-04 15:35 10.54527 -63.49364 31027 ft 480 kts 90°
2026-05-04 15:36 10.54376 -63.39168 31026 ft 481 kts 90°
2026-05-04 15:36 10.54267 -63.32358 31027 ft 482 kts 90°
2026-05-04 15:37 10.54156 -63.25592 31027 ft 482 kts 90°
2026-05-04 15:37 10.54047 -63.18783 31026 ft 482 kts 90°
2026-05-04 15:38 10.53938 -63.11955 31034 ft 482 kts 90°
2026-05-04 15:38 10.53829 -63.05132 31035 ft 483 kts 90°
2026-05-04 15:39 10.53718 -62.98302 31036 ft 484 kts 90°
2026-05-04 15:40 10.53544 -62.88050 31031 ft 484 kts 90°
2026-05-04 15:40 10.53483 -62.84604 30576 ft 493 kts 90°
2026-05-04 15:40 10.53422 -62.81114 29992 ft 493 kts 90°
2026-05-04 15:40 10.53361 -62.77641 29300 ft 489 kts 90°
2026-05-04 15:41 10.53301 -62.74203 28541 ft 486 kts 90°
2026-05-04 15:41 10.53242 -62.70782 27729 ft 483 kts 91°
2026-05-04 15:41 10.53183 -62.67421 26912 ft 481 kts 90°
2026-05-04 15:41 10.53124 -62.64028 26107 ft 478 kts 91°
2026-05-04 15:42 10.53065 -62.60652 25302 ft 474 kts 91°
2026-05-04 15:42 10.53007 -62.57314 24517 ft 470 kts 91°
2026-05-04 15:42 10.52948 -62.54011 23741 ft 465 kts 91°
2026-05-04 15:42 10.52889 -62.50743 22967 ft 460 kts 91°
2026-05-04 15:43 10.52827 -62.47509 22216 ft 454 kts 91°
2026-05-04 15:43 10.52762 -62.44322 21465 ft 449 kts 90°
2026-05-04 15:43 10.52698 -62.41160 20712 ft 444 kts 90°
2026-05-04 15:43 10.52639 -62.38051 19982 ft 438 kts 90°
2026-05-04 15:44 10.52585 -62.34978 19253 ft 431 kts 90°
2026-05-04 15:44 10.52533 -62.31993 18532 ft 425 kts 90°
2026-05-04 15:44 10.52477 -62.29015 17838 ft 418 kts 90°
2026-05-04 15:44 10.52422 -62.26104 17132 ft 405 kts 90°
2026-05-04 15:45 10.52369 -62.23287 16449 ft 392 kts 90°
2026-05-04 15:45 10.52318 -62.20559 15791 ft 381 kts 90°
2026-05-04 15:45 10.52269 -62.17898 15148 ft 371 kts 90°
2026-05-04 15:45 10.52223 -62.15316 14529 ft 359 kts 90°
2026-05-04 15:46 10.52177 -62.12840 13943 ft 343 kts 91°
2026-05-04 15:46 10.52134 -62.10469 13382 ft 329 kts 91°
2026-05-04 15:46 10.52085 -62.08194 12848 ft 315 kts 91°
2026-05-04 15:46 10.52035 -62.06007 12345 ft 306 kts 91°
2026-05-04 15:47 10.51984 -62.03809 11860 ft 323 kts 91°
2026-05-04 15:47 10.51933 -62.01467 11347 ft 333 kts 91°
2026-05-04 15:47 10.51886 -61.99123 10819 ft 330 kts 91°
2026-05-04 15:47 10.51842 -61.96828 10549 ft 318 kts 91°
2026-05-04 15:48 10.51802 -61.94640 10398 ft 301 kts 91°
2026-05-04 15:48 10.51765 -61.92569 10238 ft 285 kts 91°
2026-05-04 15:48 10.51698 -61.88748 9969 ft 256 kts 91°
2026-05-04 15:49 10.51715 -61.86992 9711 ft 248 kts 83°
2026-05-04 15:49 10.52102 -61.85234 9454 ft 262 kts 75°
2026-05-04 15:49 10.52638 -61.83422 9141 ft 275 kts 74°
2026-05-04 15:49 10.53203 -61.81586 8773 ft 271 kts 74°
2026-05-04 15:50 10.53764 -61.79764 8387 ft 268 kts 74°
2026-05-04 15:50 10.54312 -61.77954 7987 ft 267 kts 75°
2026-05-04 15:50 10.54843 -61.76157 7587 ft 264 kts 75°
2026-05-04 15:50 10.55358 -61.74373 7182 ft 261 kts 75°
2026-05-04 15:51 10.55862 -61.72602 6777 ft 259 kts 75°
2026-05-04 15:51 10.56355 -61.70844 6392 ft 257 kts 75°
2026-05-04 15:51 10.56843 -61.69108 6016 ft 254 kts 75°
2026-05-04 15:51 10.57328 -61.67384 5640 ft 253 kts 75°
2026-05-04 15:52 10.57809 -61.65676 5265 ft 248 kts 75°
2026-05-04 15:52 10.58283 -61.64004 4891 ft 248 kts 75°
2026-05-04 15:52 10.58757 -61.62320 4518 ft 247 kts 75°
2026-05-04 15:52 10.59128 -61.60623 4173 ft 244 kts 85°
2026-05-04 15:53 10.59359 -61.58930 3890 ft 241 kts 77°
2026-05-04 15:53 10.59605 -61.57251 3628 ft 239 kts 91°
2026-05-04 15:53 10.59511 -61.55566 3359 ft 240 kts 92°
2026-05-04 15:53 10.59485 -61.53886 3168 ft 236 kts 90°
2026-05-04 15:54 10.59491 -61.52225 3096 ft 234 kts 90°
2026-05-04 15:54 10.59487 -61.50649 3024 ft 210 kts 90°
2026-05-04 15:54 10.59493 -61.49202 2653 ft 199 kts 90°
2026-05-04 15:54 10.59496 -61.47832 2376 ft 189 kts 90°
2026-05-04 15:55 10.59499 -61.46556 2214 ft 171 kts 90°
2026-05-04 15:55 10.59506 -61.45382 1981 ft 162 kts 91°
2026-05-04 15:55 10.59509 -61.44262 1782 ft 155 kts 92°
2026-05-04 15:55 10.59510 -61.43193 1569 ft 145 kts 91°
2026-05-04 15:56 10.59512 -61.42233 1376 ft 133 kts 92°
2026-05-04 15:56 10.59514 -61.41307 1208 ft 130 kts 92°
2026-05-04 15:56 10.59518 -61.40384 1063 ft 130 kts 92°
2026-05-04 15:56 10.59518 -61.39463 906 ft 130 kts 92°
2026-05-04 15:57 10.59519 -61.38539 735 ft 130 kts 92°
2026-05-04 15:57 10.59523 -61.37615 558 ft 132 kts 92°
2026-05-04 15:57 10.59526 -61.36687 362 ft 131 kts 91°
2026-05-04 15:57 10.59536 -61.35756 174 ft 131 kts 90°
2026-05-04 15:58 10.59538 -61.34838 47 ft 126 kts 91°
2026-05-04 15:58 10.59539 -61.33977 18 ft 118 kts 91°
2026-05-04 15:58 10.59539 -61.33411 17 ft 38 kts 89°
2026-05-04 15:58 10.59542 -61.33155 18 ft 35 kts 88°
2026-05-04 15:59 10.59590 -61.32966 18 ft 18 kts 20°
2026-05-04 15:59 10.59702 -61.32991 18 ft 18 kts 296°
2026-05-04 15:59 10.59711 -61.33114 17 ft 17 kts 270°
2026-05-04 15:59 10.59710 -61.33212 18 ft 13 kts 270°
2026-05-04 16:00 10.59709 -61.33308 19 ft 15 kts 268°
2026-05-04 16:00 10.59711 -61.33430 18 ft 21 kts 271°
2026-05-04 16:00 10.59710 -61.33597 18 ft 24 kts 270°
2026-05-04 16:00 10.59744 -61.33739 19 ft 12 kts 349°
2026-05-04 16:01 10.59797 -61.33742 19 ft 13 kts 345°
2026-05-04 16:01 10.59836 -61.33836 18 ft 20 kts 269°
2026-05-04 16:01 10.59856 -61.33964 18 ft 13 kts 329°
2026-05-04 16:01 10.59898 -61.33961 17 ft 6 kts 11°
2026-05-04 16:02 10.59938 -61.33952 17 ft 6 kts 13°
2026-05-04 16:02 10.59966 -61.33946 17 ft 0 kts 10°